Flag for Portugal Weather past 2 weeks in Leiria, Portugal

Now
63 °F

Clear.


Feels Like: 63 °F
Forecast: 62 / 77 °F
Wind: 8 mph from Northwest

Location: Monte Real Mil.

Current Time: Aug 29, 2014 at 3:18:05 AM

Latest Report: Aug 29, 2014 at 2:00 AM


Visibility: 10 mi

Pressure: 30.12 "Hg

Humidity: 94%

Dew point: 61 °F

Location of LeiriaLocation

Historic Weather in Leiria — Graph

°F

Leiria temperature yesterday

Maximum temperature yesterday: 79 °F (at 1:00 PM)
Minimum temperature yesterday: 64 °F (at 11:00 PM)
Average temperature yesterday: 71 °F

Past Weeks' High & Low Weather Summary

 TemperatureHumidityPressure
High91 °F (Aug 17, 1:00 PM)100% (Aug 16, 6:00 AM)30.12 "Hg (Aug 16, 6:00 AM)
Low54 °F (Aug 16, 7:00 AM)26% (Aug 17, 1:00 PM)29.86 "Hg (Aug 17, 7:00 PM)
Average67 °F80%30.04 "Hg
* Reported Aug 14 2:00 AM — Aug 29 2:00 AM, Leiria, Weather by CustomWeather, © 2014

Note: Actual official high and low records may vary slightly from our data, if they occured in-between our weather recording intervals... More about our weather records

Advertising

Leiria weather history for previous 24 hours

 ConditionsComfort  
Time TempWeatherWind HumidityBarometerVisibility
2:00 AM
Aug 29
63 °FClear.8 mph94%30.12 "Hg10 mi
1:00 AM64 °FClear.5 mph88%30.12 "Hg10 mi
12:00 AM64 °FClear.7 mph88%30.09 "Hg10 mi
11:00 PM
Aug 28
64 °FClear.7 mph88%30.09 "Hg10 mi
6:00 PM73 °FPassing clouds.13 mph65%30.09 "HgN/A
5:00 PM77 °FPassing clouds.13 mph51%30.09 "HgN/A
4:00 PM77 °FPassing clouds.13 mph51%30.07 "HgN/A
3:00 PM77 °FPassing clouds.13 mph54%30.07 "HgN/A
2:00 PM79 °FPassing clouds.10 mph45%30.07 "HgN/A
1:00 PM79 °FPassing clouds.14 mph48%30.07 "HgN/A
12:00 PM77 °FPassing clouds.14 mph57%30.07 "HgN/A
11:00 AM73 °FScattered clouds.10 mph74%30.07 "HgN/A
10:00 AM72 °FPartly sunny.8 mph78%30.07 "HgN/A
9:00 AM68 °FPartly sunny.7 mph94%30.07 "HgN/A
8:00 AM68 °FPartly sunny.7 mph94%30.07 "Hg6 mi
7:00 AM66 °FFog.3 mph100%30.04 "Hg3 mi
6:00 AM68 °FLow clouds.5 mph100%30.04 "Hg4 mi
5:00 AM68 °FPassing clouds.3 mph100%30.04 "HgN/A
4:00 AM68 °FPassing clouds.5 mph100%30.07 "HgN/A
3:00 AM68 °FPassing clouds.2 mph100%30.07 "HgN/A
Weather by CustomWeather, © 2014

See weather overviewHow to use our weather pages